Regional Weather Roundup
Issued by NWS Bismarck, ND

Home | Current Version | Previous Version | Graphics & Text | Print | Product List | Glossary On
Versions: 1 2 3 4 5 6 7 8 9 10 11 12 13 14 15 16 17 18 19 20 21 22 23 24 25 26 27 28 29 30 31 32 33 34 35 36 37 38 39 40 41 42 43 44 45 46 47 48 49 50
000
ASUS43 KBIS 061010
RWRBIS

NWR BROADCAST TEXT
NATIONAL WEATHER SERVICE BISMARCK ND
400 AM CST TUE DEC 06 2016

NOTE: "FAIR" INDICATES FEW OR NO CLOUDS BELOW 12,000 FEET WITH NO
SIGNIFICANT WEATHER AND/OR OBSTRUCTIONS TO VISIBILITY.


CITY           SKY/WX    TMP DP  RH WIND       PRES   REMARKS
WILLISTON      LGT SNOW   7   2  80 NW23G30   29.98R WCI -14
MINOT          HVY SNOW  13  10  88 W37G44    29.72S VSB 1/4 WCI -10
MINOT AFB      NOT AVBL
BISMARCK       LGT SNOW  13  11  92 NW26G41   29.74R VSB 1   WCI  -7
DICKINSON      MIX PCPN   5   0  79 NW36G44   29.84R WCI -21
GARRISON         N/A     10   7  87 NW36G47   29.73R WCI -14
HETTINGER ARPT CLOUDY     6   0  76 NW31G43   29.87R WCI -18
JAMESTOWN      SNOW      25  23  92 NW32G40   29.46S VSB 1/2 WCI   8
BEACH          LGT SNOW   5   1  85 NW24G30   29.98R WCI -17
CARRINGTON     SNOW      25  23  93 NW29G35   29.51S VSB 1/2 WCI   8
HAZEN          HVY SNOW  14  10  85 NW24G40   29.81S VSB 1/4 WCI  -5
RUGBY          LGT SNOW  21  21 100 NW28G33   29.58R WCI   3
STANLEY        LGT SNOW   7   7 100 NW31G40   29.82S VSB 3/4 WCI -17
TIOGA          LGT SNOW   7   5  92 NW32G40   29.89R VSB 3/4 WCI -17
WATFORD CITY   CLOUDY     7   1  78 NW23G30   29.94S FOG     WCI -14
$$

CITY           SKY/WX    TMP DP  RH WIND       PRES   REMARKS
GRAND FORKS    CLOUDY    30  27  88 N20       29.31F FOG     WCI  17
GRAND FORKS AF CLOUDY    28  28 100 N21G28    29.33S FOG     WCI  15
DEVILS LAKE    LGT SNOW  26  25  96 N29G38    29.45F VSB 1   WCI  10
FARGO          CLOUDY    24  19  81 S20       29.43F WCI  10
CANDO          LGT SNOW  27  25  93 N28G35    29.52F WCI  11
CAVALIER       SNOW      28  28 100 N21G31    29.38F VSB 1/2 WCI  15
GRAFTON        FOG       30  30 100 N24G33    29.34F VSB 1   WCI  16
GWINNER          N/A     21  19  93 W25G32    29.51S WCI   4
LANGDON        LGT SNOW  27  27 100 N26G35    29.42F VSB 3/4 WCI  11
ROLLA          SNOW      23  23 100 N32G39    29.55S VSB 1/2 WCI   5
WALHALLA       LGT SNOW  28  28 100 N25G35    29.42F VSB 3/4 WCI  14
$$

CITY           SKY/WX    TMP DP  RH WIND       PRES   REMARKS
ABERDEEN       FLURRIES  17   8  67 W30G39    29.68F WCI  -3
MOBRIDGE       MIX PCPN  13   7  77 NW30G43   29.76R WCI  -8
BUFFALO          N/A      8   1  73 NW31      29.84S WCI -15
RAPID CITY     CLEAR      8   1  73 CALM      29.92S
GLASGOW        CLOUDY     4  -3  73 W24       30.09S WCI -19
SIDNEY         FLURRIES   7   0  73 NW28G35   30.01R WCI -16
WOLF POINT     CLOUDY     7  -3  64 NW21      30.10R WCI -13
GLENDIVE       CLOUDY     6   0  76 NW17G25   30.01R WCI -13
MILES CITY     CLEAR      4  -4  69 W15       30.09R WCI -14
BAKER          MIX PCPN   5  -1  76 W26G36    29.95S WCI -18
$$

CITY           SKY/WX    TMP DP  RH WIND       PRES   REMARKS
BILLINGS       CLOUDY     8   4  83 NE8       30.04R WCI  -4
GREAT FALLS    CLOUDY     5   1  83 N6        30.11R WCI  -6
REGINA         CLOUDY     7   1  78 NW22      30.00S WCI -14
ESTEVAN        SNOW       7   3  85 NW33G41   29.89R VSB 1/2 WCI -18
$$





USA.gov is the U.S. government's official web portal to all federal, state and local government web resources and services.